M I D A S
Marine Information and Data Acquisition System
Tripno 305 of the Zeeleeuw from 2002-08-13 06:48:00 to 2002-08-13 13:10:00
Back to CruiseResearch ActivitiesStationsMapUnderway DataData graphs

EquipmentUnitsComment
TimeDGPSUTC
LatitudeDGPSDM.mWGS84
LongitudeDGPSDM.mWGS84
TemperatureSBE03/SBE38deg celciusITS90
ConductivitySBE21S/mITS90
SalinitySBE21 Practical Salinity Units
ChlorophylAChelsea fluorimeterg/lCalibrated in Aceton
Missing or incorrect values are displayed as -999
Sea surface data collected by the RV Zeeleeuw from 2002-08-13 06:48:00 to 2002-08-13 13:10:00
                                                                                    Next 1000 lines
Time Latitude Longitude Temperature Conductivity Salinity ChlorophylA
2002-08-13 06:48:10 51°13.663 2°55.955 22.623172 0.00583 0.033968  
2002-08-13 06:48:16 51°13.664 2°55.953 22.623484 0.00583 0.033968  
2002-08-13 06:48:20 51°13.664 2°55.951 22.624342 0.00583 0.033968  
2002-08-13 06:48:26 51°13.665 2°55.948 22.62598 0.00583 0.033968  
2002-08-13 06:48:31 51°13.665 2°55.945 22.622587 0.00583 0.033969  
2002-08-13 06:48:35 51°13.666 2°55.942 22.622587 0.00583 0.033969  
2002-08-13 06:48:40 51°13.667 2°55.938 22.623874 0.00583 0.033969  
2002-08-13 06:48:47 51°13.668 2°55.932 22.62598 0.00583 0.033969  
2002-08-13 06:48:52 51°13.67 2°55.927 22.62325 0.00583 0.033969  
2002-08-13 06:48:56 51°13.67 2°55.922 22.626643 0.00583 0.033969  
2002-08-13 06:49:01 51°13.672 2°55.917 22.626643 0.00583 0.033969  
2002-08-13 06:49:06 51°13.673 2°55.911 22.628359 0.00583 0.033969  
2002-08-13 06:49:12 51°13.674 2°55.904 22.627813 0.00583 0.03397  
2002-08-13 06:49:16 51°13.675 2°55.899 22.628749 0.00583 0.03397  
2002-08-13 06:49:22 51°13.677 2°55.891 22.630036 0.00583 0.033969  
2002-08-13 06:49:26 51°13.678 2°55.886 22.631673 0.00583 0.03397  
2002-08-13 06:49:32 51°13.679 2°55.878 22.633506 0.00583 0.03397  
2002-08-13 06:49:36 51°13.68 2°55.872 22.633506 0.00583 0.03397  
2002-08-13 06:49:42 51°13.682 2°55.863 22.633467 0.00583 0.03397  
2002-08-13 06:49:46 51°13.683 2°55.858 22.633272 0.00583 0.03397  
2002-08-13 06:49:51 51°13.684 2°55.851 22.635846 0.00583 0.03397  
2002-08-13 06:49:56 51°13.685 2°55.844 22.635456 0.00583 0.03397  
2002-08-13 06:50:01 51°13.686 2°55.836 22.635456 0.00583 0.03397  
2002-08-13 06:50:07 51°13.687 2°55.828 22.636275 0.00583 0.03397  
2002-08-13 06:50:12 51°13.688 2°55.821 22.637132 0.00583 0.03397  
2002-08-13 06:50:16 51°13.689 2°55.816 22.637171 0.005726 0.033503  
2002-08-13 06:50:22 51°13.689 2°55.807 22.638263 0.00583 0.03397  
2002-08-13 06:50:26 51°13.69 2°55.802 22.63838 0.00583 0.03397  
2002-08-13 06:50:31 51°13.691 2°55.795 22.63838 0.00583 0.03397  
2002-08-13 06:50:36 51°13.691 2°55.788 22.638575 0.00583 0.033971  
2002-08-13 06:50:41 51°13.692 2°55.782 22.638692 0.00583 0.03397  
2002-08-13 06:50:47 51°13.692 2°55.774 22.639745 0.00583 0.03397  
2002-08-13 06:50:51 51°13.693 2°55.769 22.639979 0.00583 0.033971  
2002-08-13 06:50:56 51°13.693 2°55.762 22.64107 0.00583 0.033971  
2002-08-13 06:51:00 51°13.693 2°55.758 22.64107 0.00583 0.033971  
2002-08-13 06:51:07 51°13.694 2°55.749 22.642006 0.00583 0.033971  
2002-08-13 06:51:12 51°13.694 2°55.744 22.642318 0.00583 0.033971  
2002-08-13 06:51:16 51°13.694 2°55.74 22.643643 0.00583 0.033971  
2002-08-13 06:51:21 51°13.694 2°55.735 22.643254 0.00583 0.033971  
2002-08-13 06:51:26 51°13.694 2°55.731 22.644267 0.00583 0.033971  
2002-08-13 06:51:31 51°13.694 2°55.727 22.644072 0.00583 0.033971  
2002-08-13 06:51:35 51°13.694 2°55.724 22.644072 0.00583 0.033971  
2002-08-13 06:51:40 51°13.694 2°55.721 22.64645 0.00583 0.033971  
2002-08-13 06:51:44 51°13.694 2°55.719 22.646801 0.00583 0.033971  
2002-08-13 06:51:51 51°13.693 2°55.716 22.649335 0.00583 0.033971  
2002-08-13 06:51:55 51°13.693 2°55.715 22.651401 0.00583 0.033971  
2002-08-13 06:52:00 51°13.693 2°55.714 22.650739 0.00583 0.033971  
2002-08-13 06:52:04 51°13.693 2°55.713 22.650739 0.00583 0.033971  
2002-08-13 06:52:10 51°13.693 2°55.712 22.650505 0.00583 0.033971  
2002-08-13 06:52:15 51°13.694 2°55.712 22.652649 0.00583 0.033971  
2002-08-13 06:52:20 51°13.694 2°55.712 22.653429 0.00583 0.033972  
2002-08-13 06:52:26 51°13.695 2°55.713 22.651947 0.00583 0.033972  
2002-08-13 06:52:31 51°13.696 2°55.714 22.649803 0.00583 0.033972  
2002-08-13 06:52:36 51°13.697 2°55.715 22.649803 0.00583 0.033972  
2002-08-13 06:52:40 51°13.698 2°55.716 22.649725 0.00583 0.033972  
2002-08-13 06:52:46 51°13.701 2°55.717 22.636352 0.00583 0.033972  
2002-08-13 06:52:51 51°13.703 2°55.719 22.634208 0.00583 0.033972  
2002-08-13 06:52:56 51°13.706 2°55.72 22.631439 0.00583 0.033972  
2002-08-13 06:53:01 51°13.709 2°55.721 22.61779 0.00583 0.033972  
2002-08-13 06:53:06 51°13.713 2°55.721 22.61779 0.00583 0.033972  
2002-08-13 06:53:11 51°13.718 2°55.721 22.616191 0.00583 0.033972  
2002-08-13 06:53:15 51°13.722 2°55.719 22.622743 0.00583 0.033972  
2002-08-13 06:53:20 51°13.727 2°55.717 22.631322 0.005726 0.033505  
2002-08-13 06:53:26 51°13.734 2°55.713 22.646411 0.00583 0.033972  
2002-08-13 06:53:31 51°13.74 2°55.709 22.658964 0.00583 0.033972  
2002-08-13 06:53:36 51°13.746 2°55.704 22.658964 0.00583 0.033972  
2002-08-13 06:53:40 51°13.752 2°55.699 22.66368 0.00583 0.033972  
2002-08-13 06:53:46 51°13.76 2°55.692 22.665707 0.00583 0.033972  
2002-08-13 06:53:51 51°13.768 2°55.686 22.668084 0.00583 0.033972  
2002-08-13 06:53:56 51°13.776 2°55.679 22.66785 0.005726 0.033505  
2002-08-13 06:54:00 51°13.783 2°55.674 22.66785 0.005726 0.033505  
2002-08-13 06:54:06 51°13.794 2°55.665 22.667694 0.005726 0.033505  
2002-08-13 06:54:11 51°13.802 2°55.658 22.666097 0.00583 0.033972  
2002-08-13 06:54:16 51°13.812 2°55.651 22.666447 0.00583 0.033972  
2002-08-13 06:54:20 51°13.819 2°55.645 22.66902 0.00583 0.033972  
2002-08-13 06:54:26 51°13.83 2°55.635 22.670462 0.005726 0.033505  
2002-08-13 06:54:31 51°13.84 2°55.627 22.670462 0.005726 0.033505  
2002-08-13 06:54:36 51°13.85 2°55.62 22.673774 0.00583 0.033972  
2002-08-13 06:54:41 51°13.86 2°55.613 22.674632 0.00583 0.033972  
2002-08-13 06:54:44 51°13.866 2°55.608 22.673579 0.00583 0.033972  
2002-08-13 06:54:50 51°13.879 2°55.599 22.675489 0.00583 0.033972  
2002-08-13 06:54:56 51°13.891 2°55.589 22.676658 0.005726 0.033505  
2002-08-13 06:55:01 51°13.902 2°55.582 22.675723 0.005726 0.033505  
2002-08-13 06:55:06 51°13.912 2°55.574 22.675723 0.005726 0.033505  
2002-08-13 06:55:11 51°13.923 2°55.566 22.675879 0.005726 0.033505  
2002-08-13 06:55:16 51°13.934 2°55.558 22.676775 0.00583 0.033972  
2002-08-13 06:55:20 51°13.942 2°55.552 22.679113 0.00583 0.033972  
2002-08-13 06:55:26 51°13.955 2°55.543 22.678178 0.005726 0.033505  
2002-08-13 06:55:30 51°13.964 2°55.537 22.679814 0.005726 0.033505  
2002-08-13 06:55:35 51°13.975 2°55.53 22.679814 0.005726 0.033505  
2002-08-13 06:55:41 51°13.988 2°55.52 22.679814 0.005726 0.033505  
2002-08-13 06:55:46 51°13.999 2°55.511 22.679892 0.005726 0.033505  
2002-08-13 06:55:51 51°14.01 2°55.503 22.682815 0.005726 0.033505  
2002-08-13 06:55:56 51°14.02 2°55.494 22.68188 0.005726 0.033505  
2002-08-13 06:56:00 51°14.029 2°55.488 22.682737 0.00583 0.033972  
2002-08-13 06:56:05 51°14.04 2°55.479 22.682737 0.00583 0.033972  
2002-08-13 06:56:10 51°14.05 2°55.471 22.688036 0.005726 0.033505  
2002-08-13 06:56:15 51°14.061 2°55.463 22.689595 0.005726 0.033505  
2002-08-13 06:56:20 51°14.072 2°55.456 22.688504 0.00583 0.033972  
2002-08-13 06:56:24 51°14.081 2°55.45 22.685503 0.005726 0.033505  
2002-08-13 06:56:31 51°14.097 2°55.439 22.685815 0.005726 0.033505  
2002-08-13 06:56:35 51°14.106 2°55.433 22.685815 0.005726 0.033505  
2002-08-13 06:56:40 51°14.117 2°55.425 22.685036 0.005726 0.033506  
2002-08-13 06:56:45 51°14.128 2°55.416 22.688426 0.005726 0.033505  
2002-08-13 06:56:50 51°14.14 2°55.408 22.690919 0.005726 0.033506  
2002-08-13 06:56:55 51°14.151 2°55.398 22.685426 0.005726 0.033506  
2002-08-13 06:57:00 51°14.163 2°55.39 22.685426 0.005726 0.033506  
2002-08-13 06:57:06 51°14.177 2°55.379 22.692984 0.00583 0.033973  
2002-08-13 06:57:11 51°14.189 2°55.369 22.685348 0.00583 0.033973  
2002-08-13 06:57:16 51°14.2 2°55.358 22.678334 0.005726 0.033506  
2002-08-13 06:57:20 51°14.21 2°55.348 22.682347 0.00583 0.033973  
2002-08-13 06:57:26 51°14.223 2°55.333 22.690296 0.005726 0.033506  
2002-08-13 06:57:31 51°14.235 2°55.319 22.690296 0.005726 0.033506  
2002-08-13 06:57:35 51°14.243 2°55.307 22.683984 0.005726 0.033506  
2002-08-13 06:57:40 51°14.254 2°55.292 22.688971 0.005726 0.033506  
2002-08-13 06:57:45 51°14.264 2°55.275 22.692361 0.005726 0.033506  
2002-08-13 06:57:51 51°14.276 2°55.255 22.694309 0.005726 0.033506  
2002-08-13 06:57:56 51°14.286 2°55.237 22.695984 0.005726 0.033506  
2002-08-13 06:58:00 51°14.293 2°55.222 22.695984 0.005726 0.033506  
2002-08-13 06:58:06 51°14.304 2°55.2 22.703775 0.005726 0.033506  
2002-08-13 06:58:11 51°14.314 2°55.181 22.708645 0.005726 0.033506  
2002-08-13 06:58:16 51°14.323 2°55.162 22.70101 0.005726 0.033506  
2002-08-13 06:58:21 51°14.332 2°55.144 22.700698 0.005726 0.033506  
2002-08-13 06:58:26 51°14.341 2°55.125 22.705411 0.005726 0.033506  
2002-08-13 06:58:31 51°14.35 2°55.105 22.705411 0.005726 0.033506  
2002-08-13 06:58:35 51°14.358 2°55.09 22.708021 0.005726 0.033506  
2002-08-13 06:58:40 51°14.367 2°55.072 22.710709 0.005726 0.033506  
2002-08-13 06:58:45 51°14.378 2°55.054 22.708411 0.005726 0.033506  
2002-08-13 06:58:51 51°14.39 2°55.034 22.711021 0.005726 0.033506  
2002-08-13 06:58:56 51°14.401 2°55.017 22.708099 0.005726 0.033506  
2002-08-13 06:59:01 51°14.412 2°54.999 22.707632 0.005726 0.033506  
2002-08-13 06:59:05 51°14.42 2°54.986 22.707632 0.005726 0.033506  
2002-08-13 06:59:10 51°14.431 2°54.971 22.712734 0.005726 0.033506  
2002-08-13 06:59:15 51°14.442 2°54.956 22.710475 0.005726 0.033506  
2002-08-13 06:59:20 51°14.453 2°54.942 22.7088 0.005726 0.033506  
2002-08-13 06:59:26 51°14.466 2°54.926 22.709229 0.005726 0.033507  
2002-08-13 06:59:31 51°14.476 2°54.914 22.706074 0.005726 0.033507  
2002-08-13 06:59:35 51°14.484 2°54.903 22.706074 0.005726 0.033507  
2002-08-13 06:59:41 51°14.496 2°54.888 22.706775 0.005726 0.033507  
2002-08-13 06:59:46 51°14.506 2°54.875 22.708878 0.005726 0.033507  
2002-08-13 06:59:51 51°14.516 2°54.863 22.710125 0.005726 0.033507  
2002-08-13 06:59:56 51°14.525 2°54.85 22.710319 0.005726 0.033507  
2002-08-13 07:00:01 51°14.536 2°54.839 22.711722 0.005726 0.033507  
2002-08-13 07:00:06 51°14.545 2°54.827 22.711722 0.005726 0.033507  
2002-08-13 07:00:11 51°14.555 2°54.815 22.710553 0.005726 0.033508  
2002-08-13 07:00:16 51°14.564 2°54.802 22.712033 0.005726 0.033508  
2002-08-13 07:00:21 51°14.572 2°54.789 22.713358 0.005726 0.033508  
2002-08-13 07:00:26 51°14.58 2°54.776 22.713708 0.005726 0.033508  
2002-08-13 07:00:31 51°14.589 2°54.763 22.713708 0.005726 0.033508  
2002-08-13 07:00:36 51°14.598 2°54.75 22.710943 0.005726 0.033508  
2002-08-13 07:00:40 51°14.605 2°54.74 22.715266 0.005726 0.033508  
2002-08-13 07:00:46 51°14.616 2°54.725 22.711644 0.005726 0.033508  
2002-08-13 07:00:51 51°14.626 2°54.713 22.714954 0.005726 0.033508  
2002-08-13 07:00:56 51°14.636 2°54.7 22.71659 0.005726 0.033508  
2002-08-13 07:01:00 51°14.645 2°54.689 22.71659 0.005726 0.033508  
2002-08-13 07:01:06 51°14.659 2°54.674 22.718031 0.005726 0.033508  
2002-08-13 07:01:11 51°14.671 2°54.662 22.719589 0.005726 0.033508  
2002-08-13 07:01:15 51°14.68 2°54.65 22.721186 0.005726 0.033508  
2002-08-13 07:01:20 51°14.692 2°54.636 22.719356 0.005726 0.033509  
2002-08-13 07:01:24 51°14.702 2°54.625 22.718187 0.005726 0.033509  
2002-08-13 07:01:31 51°14.719 2°54.603 22.718187 0.005726 0.033509  
2002-08-13 07:01:36 51°14.732 2°54.585 22.717798 0.005726 0.033509  
2002-08-13 07:01:40 51°14.742 2°54.571 22.719356 0.005726 0.033509  
2002-08-13 07:01:46 51°14.757 2°54.548 22.723445 0.005726 0.033509  
2002-08-13 07:01:51 51°14.77 2°54.529 22.725898 0.005726 0.033509  
2002-08-13 07:01:56 51°14.784 2°54.51 22.726677 0.005726 0.033509  
2002-08-13 07:01:59 51°14.793 2°54.499 22.728196 0.005726 0.033509  
2002-08-13 07:02:06 51°14.813 2°54.474 22.728196 0.005726 0.033509  
2002-08-13 07:02:11 51°14.827 2°54.455 22.729208 0.005726 0.033509  
2002-08-13 07:02:16 51°14.842 2°54.435 22.728001 0.005726 0.033509  
2002-08-13 07:02:20 51°14.854 2°54.42 22.727689 0.005726 0.033509  
2002-08-13 07:02:25 51°14.869 2°54.401 22.729753 0.005726 0.033509  
2002-08-13 07:02:31 51°14.887 2°54.378 22.730065 0.005726 0.033509  
2002-08-13 07:02:35 51°14.899 2°54.364 22.730065 0.005726 0.033509  
2002-08-13 07:02:40 51°14.914 2°54.344 22.73026 0.005726 0.033509  
2002-08-13 07:02:46 51°14.931 2°54.32 22.731856 0.005726 0.03351  
2002-08-13 07:02:51 51°14.946 2°54.301 22.732518 0.005726 0.03351  
2002-08-13 07:02:55 51°14.959 2°54.287 22.733297 0.005726 0.03351  
2002-08-13 07:03:00 51°14.974 2°54.269 22.733492 0.005726 0.03351  
2002-08-13 07:03:05 51°14.99 2°54.252 22.733492 0.005726 0.03351  
2002-08-13 07:03:11 51°15.009 2°54.23 22.734192 0.005726 0.033509  
2002-08-13 07:03:15 51°15.02 2°54.215 22.731739 0.005726 0.033509  
2002-08-13 07:03:20 51°15.035 2°54.196 22.733336 0.005726 0.033509  
2002-08-13 07:03:26 51°15.052 2°54.173 22.734621 0.005726 0.033509  
2002-08-13 07:03:31 51°15.067 2°54.154 22.733297 0.005726 0.033509  
2002-08-13 07:03:36 51°15.083 2°54.136 22.733297 0.005726 0.033509  
2002-08-13 07:03:40 51°15.096 2°54.121 22.734621 0.005726 0.033509  
2002-08-13 07:03:45 51°15.111 2°54.102 22.735399 0.005726 0.033509  
2002-08-13 07:03:51 51°15.129 2°54.078 22.734076 0.005726 0.03351  
2002-08-13 07:03:55 51°15.141 2°54.063 22.735049 0.005726 0.033509  
2002-08-13 07:04:00 51°15.156 2°54.042 22.736529 0.005726 0.033509  
2002-08-13 07:04:06 51°15.174 2°54.019 22.736529 0.005726 0.033509  
2002-08-13 07:04:11 51°15.19 2°54 22.737346 0.005726 0.033509  
2002-08-13 07:04:16 51°15.205 2°53.981 22.737346 0.005726 0.033509  
2002-08-13 07:04:21 51°15.221 2°53.962 22.737385 0.005726 0.033509  
2002-08-13 07:04:26 51°15.237 2°53.944 22.738514 0.005726 0.033509  
2002-08-13 07:04:31 51°15.253 2°53.926 22.738514 0.005726 0.033509  
2002-08-13 07:04:35 51°15.265 2°53.911 22.738865 0.005726 0.033509  
2002-08-13 07:04:40 51°15.282 2°53.894 22.737463 0.005726 0.033509  
2002-08-13 07:04:46 51°15.301 2°53.872 22.740344 0.005726 0.03351  
2002-08-13 07:04:51 51°15.318 2°53.855 22.740928 0.005726 0.03351  
2002-08-13 07:04:56 51°15.334 2°53.837 22.738164 0.005726 0.03351  
2002-08-13 07:05:01 51°15.35 2°53.819 22.738164 0.005726 0.03351  
2002-08-13 07:05:06 51°15.366 2°53.802 22.741707 0.005726 0.03351  
2002-08-13 07:05:11 51°15.383 2°53.785 22.740461 0.005726 0.03351  
2002-08-13 07:05:16 51°15.4 2°53.77 22.73723 0.005726 0.03351  
2002-08-13 07:05:20 51°15.413 2°53.756 22.741201 0.005726 0.033511  
2002-08-13 07:05:26 51°15.434 2°53.738 22.741318 0.005726 0.033511  
2002-08-13 07:05:31 51°15.451 2°53.722 22.741318 0.005726 0.033511  
2002-08-13 07:05:36 51°15.468 2°53.707 22.739176 0.005726 0.033511  
2002-08-13 07:05:40 51°15.481 2°53.694 22.744004 0.005726 0.033511  
2002-08-13 07:05:44 51°15.495 2°53.683 22.744277 0.005726 0.033511  
2002-08-13 07:05:51 51°15.52 2°53.662 22.740773 0.005726 0.033511  
2002-08-13 07:05:56 51°15.537 2°53.647 22.744627 0.005726 0.033512  
2002-08-13 07:06:01 51°15.555 2°53.633 22.745211 0.005726 0.033512  
2002-08-13 07:06:06 51°15.572 2°53.618 22.745211 0.005726 0.033512  
2002-08-13 07:06:11 51°15.589 2°53.604 22.740617 0.005726 0.033512  
2002-08-13 07:06:16 51°15.606 2°53.589 22.745873 0.005726 0.033512  
2002-08-13 07:06:20 51°15.62 2°53.577 22.746145 0.005726 0.033512  
2002-08-13 07:06:24 51°15.634 2°53.565 22.742836 0.005726 0.033513  
2002-08-13 07:06:31 51°15.658 2°53.545 22.74817 0.005726 0.033513  
2002-08-13 07:06:36 51°15.676 2°53.531 22.74817 0.005726 0.033513  
2002-08-13 07:06:40 51°15.69 2°53.519 22.746924 0.005726 0.033513  
2002-08-13 07:06:45 51°15.707 2°53.504 22.745873 0.005726 0.033513  
2002-08-13 07:06:51 51°15.727 2°53.486 22.750233 0.005726 0.033513  
2002-08-13 07:06:56 51°15.744 2°53.472 22.749922 0.005726 0.033514  
2002-08-13 07:07:00 51°15.758 2°53.459 22.747469 0.005726 0.033514  
2002-08-13 07:07:04 51°15.771 2°53.448 22.747469 0.005726 0.033514  
2002-08-13 07:07:11 51°15.796 2°53.428 22.750778 0.005726 0.033514  
2002-08-13 07:07:15 51°15.81 2°53.416 22.749532 0.005726 0.033514  
2002-08-13 07:07:21 51°15.83 2°53.398 22.749026 0.005726 0.033514  
2002-08-13 07:07:26 51°15.847 2°53.384 22.752569 0.005726 0.033514  
2002-08-13 07:07:31 51°15.865 2°53.37 22.752647 0.005726 0.033514  
2002-08-13 07:07:36 51°15.882 2°53.354 22.752647 0.005726 0.033514  
2002-08-13 07:07:40 51°15.895 2°53.343 22.751635 0.005726 0.033514  
2002-08-13 07:07:46 51°15.916 2°53.325 22.75362 0.005726 0.033514  
2002-08-13 07:07:51 51°15.934 2°53.311 22.753931 0.005726 0.033515  
2002-08-13 07:07:56 51°15.951 2°53.295 22.751012 0.005726 0.033515  
2002-08-13 07:08:00 51°15.965 2°53.284 22.755333 0.005726 0.033515  
2002-08-13 07:08:06 51°15.986 2°53.266 22.755333 0.005726 0.033515  
2002-08-13 07:08:11 51°16.003 2°53.252 22.75471 0.005726 0.033515  
2002-08-13 07:08:16 51°16.021 2°53.237 22.757045 0.005726 0.033515  
2002-08-13 07:08:20 51°16.035 2°53.226 22.757201 0.005726 0.033515  
2002-08-13 07:08:24 51°16.049 2°53.214 22.754476 0.005726 0.033515  
2002-08-13 07:08:31 51°16.073 2°53.193 22.754476 0.005726 0.033515  
2002-08-13 07:08:36 51°16.091 2°53.179 22.758602 0.005726 0.033515  
2002-08-13 07:08:40 51°16.105 2°53.166 22.758563 0.005726 0.033515  
2002-08-13 07:08:44 51°16.119 2°53.155 22.75942 0.005726 0.033515  
2002-08-13 07:08:51 51°16.143 2°53.133 22.760899 0.005726 0.033516  
2002-08-13 07:08:56 51°16.161 2°53.119 22.761444 0.005726 0.033516  
2002-08-13 07:09:00 51°16.175 2°53.107 22.761444 0.005726 0.033516  
2002-08-13 07:09:06 51°16.196 2°53.089 22.760082 0.005726 0.033516  
2002-08-13 07:09:11 51°16.213 2°53.074 22.762806 0.005726 0.033516  
2002-08-13 07:09:15 51°16.227 2°53.063 22.762884 0.005726 0.033516  
2002-08-13 07:09:21 51°16.249 2°53.045 22.762884 0.005726 0.033516  
2002-08-13 07:09:25 51°16.263 2°53.034 22.765297 0.005726 0.033516  
2002-08-13 07:09:31 51°16.284 2°53.017 22.763896 0.005726 0.033516  
2002-08-13 07:09:35 51°16.298 2°53.005 22.763896 0.005726 0.033516  
2002-08-13 07:09:41 51°16.319 2°52.988 22.765064 0.005726 0.033516  
2002-08-13 07:09:46 51°16.337 2°52.973 22.76771 0.005726 0.033517  
2002-08-13 07:09:51 51°16.354 2°52.958 22.766465 0.005726 0.033517  
2002-08-13 07:09:56 51°16.372 2°52.943 22.766893 0.005726 0.033517  
2002-08-13 07:10:00 51°16.386 2°52.932 22.769539 0.005726 0.033517  
2002-08-13 07:10:06 51°16.407 2°52.914 22.769539 0.005726 0.033517  
2002-08-13 07:10:11 51°16.424 2°52.9 22.768839 0.005726 0.033517  
2002-08-13 07:10:16 51°16.441 2°52.885 22.770746 0.005726 0.033517  
2002-08-13 07:10:20 51°16.455 2°52.874 22.771641 0.005726 0.033517  
2002-08-13 07:10:25 51°16.472 2°52.858 22.771252 0.005726 0.033517  
2002-08-13 07:10:31 51°16.493 2°52.842 22.771641 0.005726 0.033517  
2002-08-13 07:10:36 51°16.51 2°52.827 22.771641 0.005726 0.033517  
2002-08-13 07:10:40 51°16.524 2°52.815 22.773392 0.005726 0.033517  
2002-08-13 07:10:45 51°16.542 2°52.801 22.773314 0.005726 0.033517  
2002-08-13 07:10:51 51°16.563 2°52.783 22.775182 0.005726 0.033518  
2002-08-13 07:10:55 51°16.577 2°52.772 22.775221 0.005726 0.033517  
2002-08-13 07:11:01 51°16.598 2°52.755 22.772847 0.005726 0.033518  
2002-08-13 07:11:06 51°16.615 2°52.74 22.772847 0.005726 0.033518  
2002-08-13 07:11:11 51°16.632 2°52.725 22.77635 0.005726 0.033518  
2002-08-13 07:11:15 51°16.646 2°52.714 22.776739 0.005726 0.033518  
2002-08-13 07:11:20 51°16.663 2°52.699 22.776116 0.005726 0.033518  
2002-08-13 07:11:24 51°16.677 2°52.688 22.778101 0.005726 0.033518  
2002-08-13 07:11:31 51°16.701 2°52.667 22.779268 0.005726 0.033518  
2002-08-13 07:11:36 51°16.718 2°52.652 22.779268 0.005726 0.033518  
2002-08-13 07:11:39 51°16.728 2°52.643 22.779658 0.005726 0.033518  
2002-08-13 07:11:46 51°16.753 2°52.623 22.780825 0.005726 0.033518  
2002-08-13 07:11:51 51°16.77 2°52.609 22.780981 0.005726 0.033518  
2002-08-13 07:11:56 51°16.787 2°52.594 22.781953 0.005726 0.033518  
2002-08-13 07:12:01 51°16.804 2°52.58 22.781953 0.005726 0.033518  
2002-08-13 07:12:04 51°16.815 2°52.571 22.78281 0.005726 0.033519  
2002-08-13 07:12:11 51°16.839 2°52.552 22.783666 0.005726 0.033519  
2002-08-13 07:12:15 51°16.853 2°52.54 22.783743 0.005726 0.033519  
2002-08-13 07:12:20 51°16.871 2°52.527 22.785066 0.005726 0.033519  
2002-08-13 07:12:26 51°16.892 2°52.51 22.778879 0.005726 0.033519  
2002-08-13 07:12:31 51°16.909 2°52.496 22.778879 0.005726 0.033519  
2002-08-13 07:12:35 51°16.924 2°52.485 22.782343 0.005726 0.033519  
2002-08-13 07:12:40 51°16.941 2°52.47 22.786117 0.005726 0.033519  
2002-08-13 07:12:46 51°16.962 2°52.454 22.783432 0.005726 0.033519  
2002-08-13 07:12:51 51°16.98 2°52.44 22.784055 0.005726 0.033519  
2002-08-13 07:12:55 51°16.994 2°52.43 22.788218 0.005726 0.033519  
2002-08-13 07:13:00 51°17.012 2°52.416 22.788218 0.005726 0.033519  
2002-08-13 07:13:06 51°17.033 2°52.399 22.78421 0.005726 0.033519  
2002-08-13 07:13:11 51°17.051 2°52.386 22.786428 0.005726 0.033519  
2002-08-13 07:13:16 51°17.068 2°52.372 22.788607 0.005726 0.033519  
2002-08-13 07:13:20 51°17.083 2°52.362 22.787206 0.005726 0.033519  
2002-08-13 07:13:26 51°17.104 2°52.344 22.786117 0.005726 0.033519  
2002-08-13 07:13:31 51°17.122 2°52.33 22.791292 0.005726 0.033519  
2002-08-13 07:13:35 51°17.136 2°52.318 22.791292 0.005726 0.033519  
2002-08-13 07:13:40 51°17.154 2°52.305 22.789307 0.005726 0.033519  
2002-08-13 07:13:44 51°17.168 2°52.294 22.788685 0.005726 0.033519  
2002-08-13 07:13:51 51°17.193 2°52.274 22.792148 0.005726 0.033519  
2002-08-13 07:13:55 51°17.208 2°52.264 22.792692 0.005726 0.03352  
2002-08-13 07:14:01 51°17.229 2°52.247 22.793471 0.005726 0.03352  
2002-08-13 07:14:06 51°17.247 2°52.233 22.793471 0.005726 0.03352  
2002-08-13 07:14:10 51°17.261 2°52.221 22.793782 0.005726 0.03352  
2002-08-13 07:14:16 51°17.282 2°52.205 22.795649 0.005726 0.03352  
2002-08-13 07:14:20 51°17.296 2°52.194 22.79596 0.005726 0.03352  
2002-08-13 07:14:26 51°17.318 2°52.176 22.797166 0.005726 0.03352  
2002-08-13 07:14:30 51°17.332 2°52.165 22.796777 0.005726 0.03352  
2002-08-13 07:14:36 51°17.353 2°52.147 22.796777 0.005726 0.03352  
2002-08-13 07:14:40 51°17.367 2°52.136 22.797633 0.005726 0.033521  
2002-08-13 07:14:45 51°17.385 2°52.121 22.799112 0.005726 0.033521  
2002-08-13 07:14:51 51°17.406 2°52.105 22.793004 0.005726 0.03352  
2002-08-13 07:14:55 51°17.42 2°52.092 22.7967 0.005726 0.03352  
2002-08-13 07:15:00 51°17.438 2°52.08 22.7967 0.005726 0.03352  
2002-08-13 07:15:04 51°17.452 2°52.068 22.798645 0.005726 0.03352  
2002-08-13 07:15:11 51°17.477 2°52.049 22.7967 0.005726 0.03352  
2002-08-13 07:15:16 51°17.495 2°52.035 22.801173 0.005726 0.033521  
2002-08-13 07:15:20 51°17.508 2°52.022 22.802263 0.005726 0.033521  
2002-08-13 07:15:26 51°17.53 2°52.005 22.800707 0.005726 0.033521  
2002-08-13 07:15:31 51°17.547 2°51.988 22.797867 0.005726 0.033521  
2002-08-13 07:15:35 51°17.561 2°51.976 22.797867 0.005726 0.033521  
2002-08-13 07:15:41 51°17.581 2°51.956 22.803508 0.005726 0.033521  
2002-08-13 07:15:46 51°17.598 2°51.941 22.801796 0.005726 0.033521  
2002-08-13 07:15:51 51°17.615 2°51.925 22.80448 0.005726 0.033521  
2002-08-13 07:15:55 51°17.629 2°51.912 22.806192 0.005726 0.033521  
2002-08-13 07:16:00 51°17.646 2°51.895 22.806192 0.005726 0.033521  
2002-08-13 07:16:05 51°17.663 2°51.878 22.803897 0.005726 0.033521  
2002-08-13 07:16:11 51°17.683 2°51.858 22.80343 0.005726 0.033521  
2002-08-13 07:16:15 51°17.696 2°51.844 22.807514 0.005726 0.033522  
2002-08-13 07:16:20 51°17.713 2°51.826 22.807359 0.005726 0.033522  
2002-08-13 07:16:26 51°17.732 2°51.804 22.807125 0.005726 0.033522  
2002-08-13 07:16:31 51°17.748 2°51.785 22.807125 0.005726 0.033522  
2002-08-13 07:16:35 51°17.761 2°51.77 22.810042 0.005726 0.033522  
2002-08-13 07:16:40 51°17.776 2°51.75 22.81012 0.005726 0.033522  
2002-08-13 07:16:45 51°17.792 2°51.73 22.810276 0.005726 0.033522  
2002-08-13 07:16:51 51°17.81 2°51.705 22.812221 0.005726 0.033523  
2002-08-13 07:16:56 51°17.825 2°51.685 22.81012 0.005726 0.033522  
2002-08-13 07:17:01 51°17.84 2°51.663 22.812298 0.005726 0.033523  
2002-08-13 07:17:05 51°17.852 2°51.647 22.812298 0.005726 0.033523  
2002-08-13 07:17:10 51°17.867 2°51.626 22.814049 0.005726 0.033523  
2002-08-13 07:17:15 51°17.882 2°51.606 22.814515 0.005726 0.033522  
2002-08-13 07:17:20 51°17.896 2°51.584 22.81506 0.005726 0.033523  
2002-08-13 07:17:26 51°17.914 2°51.558 22.815605 0.005726 0.033523  
2002-08-13 07:17:31 51°17.929 2°51.537 22.816382 0.005726 0.033523  
2002-08-13 07:17:36 51°17.943 2°51.514 22.816382 0.005726 0.033523  
2002-08-13 07:17:40 51°17.955 2°51.497 22.816849 0.005726 0.033523  
2002-08-13 07:17:46 51°17.973 2°51.471 22.818094 0.005726 0.033523  
2002-08-13 07:17:51 51°17.988 2°51.45 22.81716 0.005726 0.033523  
2002-08-13 07:17:55 51°18 2°51.432 22.81786 0.005726 0.033523  
2002-08-13 07:18:00 51°18.015 2°51.411 22.820777 0.005726 0.033523  
2002-08-13 07:18:05 51°18.029 2°51.389 22.820777 0.005726 0.033523  
2002-08-13 07:18:11 51°18.047 2°51.363 22.822177 0.005726 0.033523  
2002-08-13 07:18:16 51°18.062 2°51.341 22.822994 0.005726 0.033523  
2002-08-13 07:18:21 51°18.076 2°51.319 22.823538 0.005726 0.033523  
2002-08-13 07:18:26 51°18.091 2°51.297 22.821866 0.005726 0.033523  
2002-08-13 07:18:31 51°18.106 2°51.275 22.825327 0.005726 0.033524  
2002-08-13 07:18:35 51°18.118 2°51.257 22.825327 0.005726 0.033524  
2002-08-13 07:18:41 51°18.136 2°51.231 22.825638 0.005726 0.033524  
2002-08-13 07:18:46 51°18.15 2°51.209 22.826105 0.005726 0.033524  
2002-08-13 07:18:51 51°18.165 2°51.186 22.828633 0.005726 0.033524  
2002-08-13 07:18:55 51°18.176 2°51.168 22.828399 0.005726 0.033524  
2002-08-13 07:19:00 51°18.19 2°51.145 22.829411 0.005726 0.033524  
2002-08-13 07:19:06 51°18.207 2°51.117 22.829411 0.005726 0.033524  
2002-08-13 07:19:11 51°18.22 2°51.093 22.831277 0.005726 0.033525  
2002-08-13 07:19:16 51°18.234 2°51.07 22.825872 0.005726 0.033524  
2002-08-13 07:19:21 51°18.247 2°51.046 22.83011 0.005726 0.033524  
2002-08-13 07:19:26 51°18.261 2°51.022 22.832521 0.005726 0.033524  
2002-08-13 07:19:31 51°18.274 2°50.998 22.830499 0.005726 0.033525  
2002-08-13 07:19:36 51°18.288 2°50.974 22.830499 0.005726 0.033525  
2002-08-13 07:19:41 51°18.301 2°50.949 22.834193 0.005726 0.033525  
2002-08-13 07:19:46 51°18.314 2°50.925 22.834193 0.005726 0.033525  
2002-08-13 07:19:51 51°18.327 2°50.901 22.829488 0.005726 0.033525  
2002-08-13 07:19:56 51°18.34 2°50.876 22.835515 0.005726 0.033525  
2002-08-13 07:20:00 51°18.351 2°50.857 22.835515 0.005726 0.033525  
2002-08-13 07:20:06 51°18.366 2°50.827 22.835671 0.005726 0.033525  
2002-08-13 07:20:11 51°18.379 2°50.803 22.835438 0.005726 0.033526  
2002-08-13 07:20:15 51°18.389 2°50.782 22.838354 0.005726 0.033526  
2002-08-13 07:20:21 51°18.405 2°50.753 22.838354 0.005726 0.033526  
2002-08-13 07:20:26 51°18.417 2°50.728 22.83952 0.005726 0.033526  
2002-08-13 07:20:31 51°18.43 2°50.703 22.840609 0.005726 0.033526  
2002-08-13 07:20:36 51°18.443 2°50.679 22.840609 0.005726 0.033526  
2002-08-13 07:20:40 51°18.453 2°50.659 22.840453 0.005726 0.033526  
2002-08-13 07:20:46 51°18.468 2°50.63 22.838665 0.005726 0.033527  
2002-08-13 07:20:51 51°18.481 2°50.604 22.843214 0.005726 0.033527  
2002-08-13 07:20:55 51°18.491 2°50.585 22.843642 0.005726 0.033527  
2002-08-13 07:21:01 51°18.506 2°50.555 22.844186 0.005726 0.033528  
2002-08-13 07:21:06 51°18.519 2°50.531 22.844186 0.005726 0.033528  
2002-08-13 07:21:11 51°18.531 2°50.505 22.845858 0.005726 0.033528  
2002-08-13 07:21:15 51°18.542 2°50.486 22.846907 0.005726 0.033528  
2002-08-13 07:21:21 51°18.557 2°50.456 22.847918 0.005726 0.033528  
2002-08-13 07:21:26 51°18.57 2°50.432 22.847918 0.005726 0.033528  
2002-08-13 07:21:31 51°18.582 2°50.407 22.847607 0.005726 0.033529  
2002-08-13 07:21:36 51°18.595 2°50.382 22.847607 0.005726 0.033529  
2002-08-13 07:21:40 51°18.605 2°50.362 22.849784 0.005726 0.033529  
2002-08-13 07:21:46 51°18.621 2°50.333 22.85095 0.005622 0.033062  
2002-08-13 07:21:51 51°18.633 2°50.308 22.851261 0.005726 0.033529  
2002-08-13 07:21:56 51°18.646 2°50.283 22.852544 0.005726 0.03353  
2002-08-13 07:22:00 51°18.656 2°50.263 22.852933 0.005726 0.03353  
2002-08-13 07:22:05 51°18.669 2°50.239 22.852933 0.005726 0.03353  
2002-08-13 07:22:11 51°18.684 2°50.209 22.854099 0.005726 0.03353  
2002-08-13 07:22:16 51°18.697 2°50.184 22.855032 0.005726 0.03353  
2002-08-13 07:22:20 51°18.707 2°50.164 22.855537 0.005726 0.03353  
2002-08-13 07:22:26 51°18.722 2°50.135 22.856976 0.005726 0.033531  
2002-08-13 07:22:31 51°18.735 2°50.11 22.857403 0.005726 0.033531  
2002-08-13 07:22:35 51°18.745 2°50.091 22.857403 0.005726 0.033531  
2002-08-13 07:22:41 51°18.761 2°50.061 22.85717 0.005726 0.033531  
2002-08-13 07:22:46 51°18.773 2°50.036 22.859347 0.005726 0.033531  
2002-08-13 07:22:51 51°18.786 2°50.011 22.859386 0.005622 0.033064  
2002-08-13 07:22:56 51°18.799 2°49.987 22.861096 0.005726 0.033532  
2002-08-13 07:23:01 51°18.812 2°49.962 22.861096 0.005726 0.033532  
2002-08-13 07:23:06 51°18.825 2°49.937 22.860163 0.005726 0.033532  
2002-08-13 07:23:11 51°18.838 2°49.913 22.862223 0.005726 0.033532  
2002-08-13 07:23:16 51°18.851 2°49.889 22.863273 0.005726 0.033532  
2002-08-13 07:23:21 51°18.864 2°49.864 22.863545 0.005726 0.033533  
2002-08-13 07:23:26 51°18.876 2°49.839 22.864439 0.005726 0.033533  
2002-08-13 07:23:31 51°18.889 2°49.815 22.864439 0.005726 0.033533  
2002-08-13 07:23:36 51°18.901 2°49.79 22.865682 0.005726 0.033533  
2002-08-13 07:23:40 51°18.912 2°49.77 22.866421 0.005622 0.033066  
2002-08-13 07:23:46 51°18.927 2°49.741 22.86712 0.005726 0.033534  
2002-08-13 07:23:51 51°18.94 2°49.717 22.868364 0.005622 0.033066  
2002-08-13 07:23:56 51°18.953 2°49.692 22.868753 0.005622 0.033066  
2002-08-13 07:24:00 51°18.963 2°49.673 22.870191 0.005726 0.033534  
2002-08-13 07:24:06 51°18.979 2°49.643 22.870191 0.005726 0.033534  
2002-08-13 07:24:10 51°18.989 2°49.623 22.870657 0.005726 0.033535  
2002-08-13 07:24:16 51°19.004 2°49.593 22.871512 0.005622 0.033067  
2002-08-13 07:24:20 51°19.014 2°49.573 22.872445 0.005726 0.033535  
2002-08-13 07:24:26 51°19.03 2°49.543 22.872484 0.005726 0.033535  
2002-08-13 07:24:31 51°19.043 2°49.518 22.872834 0.005726 0.033535  
2002-08-13 07:24:36 51°19.056 2°49.493 22.872834 0.005726 0.033535  
2002-08-13 07:24:40 51°19.066 2°49.473 22.874815 0.005726 0.033536  
2002-08-13 07:24:46 51°19.082 2°49.443 22.874621 0.005622 0.033068  
2002-08-13 07:24:51 51°19.094 2°49.417 22.876448 0.005622 0.033069  
2002-08-13 07:24:56 51°19.108 2°49.393 22.877108 0.005622 0.033069  
2002-08-13 07:25:01 51°19.12 2°49.367 22.872834 0.005726 0.033537  
2002-08-13 07:25:06 51°19.134 2°49.343 22.872834 0.005726 0.033537  
2002-08-13 07:25:11 51°19.146 2°49.318 22.878468 0.005726 0.033537  
2002-08-13 07:25:16 51°19.159 2°49.293 22.878857 0.005726 0.033537  
2002-08-13 07:25:20 51°19.169 2°49.273 22.87909 0.005622 0.03307  
2002-08-13 07:25:25 51°19.182 2°49.248 22.880917 0.005726 0.033538  
2002-08-13 07:25:31 51°19.198 2°49.218 22.8808 0.005726 0.033538  
2002-08-13 07:25:34 51°19.205 2°49.203 22.8808 0.005726 0.033538  
2002-08-13 07:25:41 51°19.223 2°49.168 22.883015 0.005622 0.03307  
2002-08-13 07:25:46 51°19.236 2°49.143 22.883637 0.005726 0.033538  
2002-08-13 07:25:51 51°19.249 2°49.118 22.884491 0.005726 0.033538  
2002-08-13 07:25:56 51°19.261 2°49.093 22.885074 0.005622 0.033071  
2002-08-13 07:26:00 51°19.271 2°49.073 22.886706 0.005726 0.033539  
2002-08-13 07:26:05 51°19.284 2°49.048 22.886706 0.005726 0.033539  
2002-08-13 07:26:11 51°19.299 2°49.017 22.886395 0.005622 0.033072  
2002-08-13 07:26:16 51°19.312 2°48.992 22.8876 0.005622 0.033072  
2002-08-13 07:26:20 51°19.322 2°48.972 22.889038 0.005726 0.03354  
2002-08-13 07:26:25 51°19.334 2°48.946 22.888727 0.005622 0.033072  
2002-08-13 07:26:31 51°19.349 2°48.915 22.889348 0.005622 0.033073  
2002-08-13 07:26:36 51°19.362 2°48.89 22.889348 0.005622 0.033073  
2002-08-13 07:26:40 51°19.371 2°48.869 22.891097 0.005622 0.033073  
2002-08-13 07:26:46 51°19.386 2°48.839 22.891524 0.005726 0.033541  
2002-08-13 07:26:51 51°19.399 2°48.813 22.892223 0.005622 0.033073  
2002-08-13 07:26:56 51°19.411 2°48.788 22.893778 0.005622 0.033074  
2002-08-13 07:27:00 51°19.421 2°48.767 22.893855 0.005726 0.033541  
2002-08-13 07:27:06 51°19.436 2°48.737 22.893855 0.005726 0.033541  
2002-08-13 07:27:11 51°19.449 2°48.712 22.895137 0.005622 0.033074  
2002-08-13 07:27:16 51°19.461 2°48.686 22.897041 0.005622 0.033074  
2002-08-13 07:27:21 51°19.473 2°48.661 22.897585 0.005726 0.033542  
2002-08-13 07:27:25 51°19.483 2°48.641 22.898129 0.005726 0.033542  
2002-08-13 07:27:31 51°19.498 2°48.611 22.899411 0.005622 0.033075  
2002-08-13 07:27:36 51°19.51 2°48.585 22.899411 0.005622 0.033075  
2002-08-13 07:27:41 51°19.523 2°48.56 22.899877 0.005622 0.033075  
2002-08-13 07:27:46 51°19.535 2°48.535 22.90046 0.005622 0.033075  
2002-08-13 07:27:51 51°19.548 2°48.51 22.902169 0.005622 0.033076  
2002-08-13 07:27:55 51°19.558 2°48.49 22.901392 0.005726 0.033543  
2002-08-13 07:28:00 51°19.57 2°48.465 22.90349 0.005622 0.033076  
2002-08-13 07:28:06 51°19.585 2°48.435 22.90349 0.005622 0.033076  
2002-08-13 07:28:11 51°19.598 2°48.409 22.904344 0.005622 0.033076  
2002-08-13 07:28:15 51°19.608 2°48.389 22.905277 0.005622 0.033076  
2002-08-13 07:28:21 51°19.623 2°48.359 22.906054 0.005622 0.033077  
2002-08-13 07:28:26 51°19.636 2°48.334 22.90718 0.005622 0.033077  
2002-08-13 07:28:31 51°19.648 2°48.309 22.908423 0.005622 0.033077  
2002-08-13 07:28:36 51°19.661 2°48.284 22.908423 0.005622 0.033077  
2002-08-13 07:28:40 51°19.671 2°48.264 22.909278 0.005622 0.033078  
2002-08-13 07:28:46 51°19.685 2°48.235 22.908734 0.005622 0.033078  
2002-08-13 07:28:51 51°19.697 2°48.212 22.910831 0.005622 0.033078  
2002-08-13 07:28:56 51°19.708 2°48.189 22.911686 0.005622 0.033078  
2002-08-13 07:29:00 51°19.717 2°48.172 22.912502 0.005622 0.03308  
2002-08-13 07:29:06 51°19.73 2°48.146 22.912502 0.005622 0.03308  
2002-08-13 07:29:11 51°19.741 2°48.125 22.913745 0.005622 0.033079  
2002-08-13 07:29:16 51°19.751 2°48.105 22.914677 0.005622 0.033079  
2002-08-13 07:29:20 51°19.76 2°48.088 22.915376 0.005622 0.033079  
2002-08-13 07:29:26 51°19.773 2°48.064 22.916386 0.005622 0.03308  
2002-08-13 07:29:31 51°19.783 2°48.043 22.916308 0.005622 0.03308  
2002-08-13 07:29:35 51°19.791 2°48.028 22.916308 0.005622 0.03308  
2002-08-13 07:29:41 51°19.803 2°48.004 22.918017 0.005622 0.03308  
2002-08-13 07:29:46 51°19.813 2°47.985 22.91891 0.005622 0.033081  
2002-08-13 07:29:51 51°19.822 2°47.965 22.919066 0.005622 0.033081  
2002-08-13 07:29:55 51°19.829 2°47.948 22.920386 0.005622 0.033081  
2002-08-13 07:30:00 51°19.838 2°47.929 22.921007 0.005622 0.033082  
2002-08-13 07:30:06 51°19.849 2°47.905 22.921007 0.005622 0.033082  
2002-08-13 07:30:11 51°19.857 2°47.887 22.921629 0.005622 0.033082  
2002-08-13 07:30:16 51°19.864 2°47.871 22.922639 0.005622 0.033082  
2002-08-13 07:30:20 51°19.869 2°47.858 22.923571 0.005622 0.033082  
2002-08-13 07:30:26 51°19.875 2°47.839 22.92427 0.005622 0.033083  
2002-08-13 07:30:31 51°19.88 2°47.825 22.92427 0.005622 0.033083  
2002-08-13 07:30:36 51°19.885 2°47.81 22.925512 0.005622 0.033083  
2002-08-13 07:30:40 51°19.888 2°47.799 22.926483 0.005622 0.033083  
2002-08-13 07:30:46 51°19.894 2°47.782 22.927571 0.005622 0.033083  
2002-08-13 07:30:51 51°19.898 2°47.769 22.928503 0.005622 0.033083  
2002-08-13 07:30:56 51°19.902 2°47.756 22.9299 0.005622 0.033084  
2002-08-13 07:31:00 51°19.905 2°47.746 22.9299 0.005622 0.033084  
2002-08-13 07:31:06 51°19.91 2°47.733 22.930366 0.005622 0.033084  
2002-08-13 07:31:11 51°19.913 2°47.723 22.931454 0.005622 0.033084  
2002-08-13 07:31:16 51°19.915 2°47.714 22.932425 0.005622 0.033084  
2002-08-13 07:31:20 51°19.917 2°47.708 22.932153 0.005622 0.033085  
2002-08-13 07:31:26 51°19.919 2°47.702 22.933201 0.005622 0.033085  
2002-08-13 07:31:31 51°19.92 2°47.699 22.934754 0.005622 0.033085  
2002-08-13 07:31:36 51°19.92 2°47.697 22.934754 0.005622 0.033085  
2002-08-13 07:31:40 51°19.92 2°47.697 22.935065 0.005622 0.033085  
2002-08-13 07:31:46 51°19.92 2°47.697 22.935609 0.005622 0.033086  
2002-08-13 07:31:51 51°19.92 2°47.697 22.93522 0.005622 0.033086  
2002-08-13 07:31:56 51°19.92 2°47.697 22.936929 0.005622 0.033086  
2002-08-13 07:32:00 51°19.92 2°47.697 22.938016 0.005622 0.033086  
2002-08-13 07:32:07 51°19.92 2°47.697 22.938016 0.005622 0.033086  
2002-08-13 07:32:12 51°19.92 2°47.697 22.937938 0.005622 0.033086  
2002-08-13 07:32:16 51°19.92 2°47.697 22.940151 0.005622 0.033086  
2002-08-13 07:32:22 51°19.92 2°47.697 22.939142 0.005622 0.033086  
2002-08-13 07:32:27 51°19.92 2°47.697 22.904344 0.005622 0.033082  
2002-08-13 07:32:32 51°19.92 2°47.697 22.912385 0.005622 0.033079  
2002-08-13 07:32:36 51°19.92 2°47.697 22.912385 0.005622 0.033079  
2002-08-13 07:32:41 51°19.92 2°47.697 22.915764 0.005622 0.033081  
2002-08-13 07:32:46 51°19.92 2°47.697 22.917784 0.005622 0.033083  
2002-08-13 07:32:51 51°19.92 2°47.697 22.918328 0.005622 0.033084  
2002-08-13 07:32:56 51°19.92 2°47.697 22.922794 0.005622 0.033085  
2002-08-13 07:33:01 51°19.92 2°47.697 22.920386 0.005622 0.033086  
2002-08-13 07:33:06 51°19.92 2°47.697 22.920386 0.005622 0.033086  
2002-08-13 07:33:12 51°19.921 2°47.698 22.92225 0.005622 0.033086  
2002-08-13 07:33:16 51°19.921 2°47.698 22.923338 0.005622 0.033087  
2002-08-13 07:33:22 51°19.921 2°47.698 22.927182 0.005622 0.033087  
2002-08-13 07:33:27 51°19.921 2°47.698 22.928114 0.005622 0.033087  
2002-08-13 07:33:32 51°19.921 2°47.699 22.928114 0.005622 0.033087  
2002-08-13 07:33:36 51°19.921 2°47.699 22.929279 0.005622 0.033087  
2002-08-13 07:33:42 51°19.921 2°47.699 22.930366 0.005622 0.033087  
2002-08-13 07:33:47 51°19.921 2°47.699 22.931221 0.005622 0.033088  
2002-08-13 07:33:51 51°19.921 2°47.699 22.93258 0.005622 0.033088  
2002-08-13 07:33:56 51°19.921 2°47.699 22.933434 0.005622 0.033088  
2002-08-13 07:34:00 51°19.921 2°47.699 22.934133 0.005622 0.033088  
2002-08-13 07:34:06 51°19.921 2°47.699 22.934133 0.005622 0.033088  
2002-08-13 07:34:11 51°19.922 2°47.7 22.934832 0.005622 0.033088  
2002-08-13 07:34:16 51°19.922 2°47.7 22.936463 0.005622 0.033088  
2002-08-13 07:34:21 51°19.922 2°47.7 22.936773 0.005622 0.033088  
2002-08-13 07:34:26 51°19.922 2°47.7 22.937628 0.005622 0.033088  
2002-08-13 07:34:30 51°19.922 2°47.7 22.937628 0.005622 0.033088  
2002-08-13 07:34:35 51°19.922 2°47.7 22.93887 0.005622 0.033089  
2002-08-13 07:34:40 51°19.922 2°47.7 22.939763 0.005622 0.033089  
2002-08-13 07:34:46 51°19.922 2°47.7 22.941161 0.005622 0.033089  
2002-08-13 07:34:51 51°19.922 2°47.7 22.942326 0.005622 0.033089  
2002-08-13 07:34:56 51°19.922 2°47.701 22.942559 0.005622 0.033089  
2002-08-13 07:35:01 51°19.922 2°47.701 22.943646 0.005622 0.033089  
2002-08-13 07:35:06 51°19.922 2°47.701 22.943646 0.005622 0.033089  
2002-08-13 07:35:11 51°19.922 2°47.701 22.945393 0.005622 0.03309  
2002-08-13 07:35:16 51°19.922 2°47.701 22.945548 0.005622 0.03309  
2002-08-13 07:35:20 51°19.922 2°47.701 22.947334 0.005622 0.03309  
2002-08-13 07:35:26 51°19.923 2°47.701 22.947256 0.005622 0.03309  
2002-08-13 07:35:31 51°19.923 2°47.701 22.949042 0.005622 0.03309  
2002-08-13 07:35:36 51°19.923 2°47.701 22.949042 0.005622 0.03309  
2002-08-13 07:35:41 51°19.923 2°47.702 22.950284 0.005622 0.03309  
2002-08-13 07:35:46 51°19.923 2°47.702 22.951138 0.005622 0.03309  
2002-08-13 07:35:51 51°19.923 2°47.702 22.951604 0.005622 0.03309  
2002-08-13 07:35:55 51°19.923 2°47.702 22.953429 0.005622 0.03309  
2002-08-13 07:36:01 51°19.923 2°47.702 22.953429 0.005622 0.033091  
2002-08-13 07:36:06 51°19.923 2°47.703 22.953429 0.005622 0.033091  
2002-08-13 07:36:11 51°19.923 2°47.703 22.95568 0.005622 0.033091  
2002-08-13 07:36:16 51°19.923 2°47.703 22.956301 0.005622 0.033091  
2002-08-13 07:36:21 51°19.923 2°47.703 22.956146 0.005622 0.033091  
2002-08-13 07:36:26 51°19.924 2°47.704 22.95863 0.005622 0.033091  
2002-08-13 07:36:31 51°19.924 2°47.704 22.959407 0.005622 0.033091  
2002-08-13 07:36:36 51°19.924 2°47.704 22.959407 0.005622 0.033091  
2002-08-13 07:36:40 51°19.924 2°47.704 22.961153 0.005622 0.033092  
2002-08-13 07:36:46 51°19.924 2°47.705 22.962551 0.005622 0.033092  
2002-08-13 07:36:51 51°19.924 2°47.705 22.96224 0.005622 0.033092  
2002-08-13 07:36:56 51°19.925 2°47.705 22.96422 0.005622 0.033092  
2002-08-13 07:37:00 51°19.925 2°47.706 22.964686 0.005622 0.033092  
2002-08-13 07:37:04 51°19.925 2°47.706 22.964686 0.005622 0.033092  
2002-08-13 07:37:11 51°19.925 2°47.707 22.96651 0.005622 0.033092  
2002-08-13 07:37:16 51°19.925 2°47.707 22.966704 0.005622 0.033092  
2002-08-13 07:37:20 51°19.925 2°47.707 22.968489 0.005622 0.033092  
2002-08-13 07:37:24 51°19.925 2°47.707 22.968489 0.005622 0.033093  
2002-08-13 07:37:31 51°19.926 2°47.708 22.969343 0.005622 0.033093  
2002-08-13 07:37:36 51°19.926 2°47.708 22.969343 0.005622 0.033093  
2002-08-13 07:37:41 51°19.926 2°47.708 22.97074 0.005622 0.033093  
2002-08-13 07:37:46 51°19.926 2°47.708 22.973263 0.005622 0.033093  
2002-08-13 07:37:51 51°19.926 2°47.708 22.974272 0.005622 0.033093  
2002-08-13 07:37:55 51°19.926 2°47.709 22.974505 0.005622 0.033094  
2002-08-13 07:38:00 51°19.927 2°47.709 22.974893 0.005622 0.033094  
2002-08-13 07:38:05 51°19.927 2°47.71 22.974893 0.005622 0.033094  
2002-08-13 07:38:11 51°19.927 2°47.71 22.976523 0.005622 0.033094  
2002-08-13 07:38:16 51°19.927 2°47.711 22.97792 0.005622 0.033094  
2002-08-13 07:38:21 51°19.927 2°47.711 22.979899 0.005622 0.033094  
2002-08-13 07:38:26 51°19.927 2°47.711 22.979976 0.005622 0.033095  
2002-08-13 07:38:31 51°19.927 2°47.712 22.979976 0.005622 0.033095  
2002-08-13 07:38:35 51°19.927 2°47.712 22.981373 0.005622 0.033095  
2002-08-13 07:38:40 51°19.927 2°47.712 22.981761 0.005622 0.033095  
2002-08-13 07:38:45 51°19.927 2°47.712 22.982926 0.005622 0.033095  
2002-08-13 07:38:51 51°19.928 2°47.713 22.984827 0.005622 0.033095  
2002-08-13 07:38:56 51°19.928 2°47.713 22.986883 0.005622 0.033095  
2002-08-13 07:39:01 51°19.928 2°47.713 22.986922 0.005622 0.033095  
2002-08-13 07:39:06 51°19.929 2°47.714 22.986922 0.005622 0.033095  
2002-08-13 07:39:11 51°19.929 2°47.714 22.988862 0.005622 0.033095  
2002-08-13 07:39:15 51°19.929 2°47.715 22.988552 0.005622 0.033096  
2002-08-13 07:39:20 51°19.929 2°47.715 22.989755 0.005622 0.033096  
2002-08-13 07:39:25 51°19.929 2°47.715 22.991811 0.005622 0.033096  
2002-08-13 07:39:31 51°19.93 2°47.715 22.994216 0.005622 0.033096  
2002-08-13 07:39:36 51°19.93 2°47.715 22.994216 0.005622 0.033096  
2002-08-13 07:39:41 51°19.93 2°47.716 22.995342 0.005622 0.033096  
2002-08-13 07:39:46 51°19.93 2°47.716 22.995031 0.005622 0.033096  
2002-08-13 07:39:51 51°19.931 2°47.716 22.998251 0.005622 0.033097  
2002-08-13 07:39:55 51°19.931 2°47.716 22.99798 0.005622 0.033097  
2002-08-13 07:40:00 51°19.931 2°47.715 23.000889 0.005622 0.033097  
2002-08-13 07:40:05 51°19.931 2°47.716 23.000889 0.005622 0.033097  
2002-08-13 07:40:11 51°19.931 2°47.716 22.999648 0.005622 0.033097  
2002-08-13 07:40:16 51°19.932 2°47.716 23.002092 0.005622 0.033097  
2002-08-13 07:40:21 51°19.932 2°47.717 23.004963 0.005622 0.033098  
2002-08-13 07:40:26 51°19.932 2°47.717 23.005506 0.005622 0.033098  
2002-08-13 07:40:31 51°19.932 2°47.717 23.006747 0.005622 0.033098  
2002-08-13 07:40:36 51°19.932 2°47.717 23.006747 0.005622 0.033098  
2002-08-13 07:40:40 51°19.932 2°47.717 23.007833 0.005622 0.033098  
2002-08-13 07:40:45 51°19.933 2°47.717 23.009695 0.005622 0.033098  
2002-08-13 07:40:51 51°19.933 2°47.717 23.010005 0.005622 0.033098  
2002-08-13 07:40:55 51°19.933 2°47.717 23.013186 0.005622 0.033098  
2002-08-13 07:41:01 51°19.933 2°47.718 23.013186 0.005622 0.033098  
2002-08-13 07:41:06 51°19.934 2°47.718 23.014466 0.005622 0.033098  
2002-08-13 07:41:11 51°19.934 2°47.718 23.01528 0.005622 0.033098  
2002-08-13 07:41:16 51°19.934 2°47.718 23.017957 0.005622 0.033099  
2002-08-13 07:41:21 51°19.934 2°47.718 23.019508 0.005622 0.033099  
2002-08-13 07:41:26 51°19.934 2°47.718 23.020439 0.005622 0.033099  
2002-08-13 07:41:31 51°19.935 2°47.718 23.020982 0.005622 0.033099  
2002-08-13 07:41:36 51°19.935 2°47.717 23.020982 0.005622 0.033099  
2002-08-13 07:41:41 51°19.935 2°47.717 23.023464 0.005622 0.033099  
2002-08-13 07:41:46 51°19.935 2°47.717 23.024162 0.005622 0.033099  
2002-08-13 07:41:51 51°19.936 2°47.717 23.024782 0.005622 0.033099  
2002-08-13 07:41:56 51°19.936 2°47.717 23.027807 0.005622 0.0331  
2002-08-13 07:42:00 51°19.936 2°47.718 23.027807 0.005622 0.0331  
2002-08-13 07:42:05 51°19.936 2°47.718 23.029552 0.005622 0.033099  
2002-08-13 07:42:11 51°19.936 2°47.718 23.031026 0.005622 0.0331  
2002-08-13 07:42:16 51°19.936 2°47.718 23.032034 0.005622 0.0331  
2002-08-13 07:42:20 51°19.937 2°47.718 23.034516 0.005622 0.0331  
2002-08-13 07:42:26 51°19.937 2°47.718 23.034826 0.005622 0.0331  
2002-08-13 07:42:31 51°19.937 2°47.718 23.037152 0.005622 0.0331  
2002-08-13 07:42:36 51°19.937 2°47.718 23.037152 0.005622 0.0331  
2002-08-13 07:42:40 51°19.937 2°47.718 23.038897 0.005622 0.0331  
2002-08-13 07:42:44 51°19.938 2°47.718 23.040293 0.005622 0.033101  
2002-08-13 07:42:51 51°19.938 2°47.718 23.042154 0.005622 0.033101  
2002-08-13 07:42:56 51°19.938 2°47.718 23.04324 0.005622 0.033101  
2002-08-13 07:43:01 51°19.938 2°47.718 23.045023 0.005622 0.033101  
2002-08-13 07:43:06 51°19.938 2°47.718 23.045023 0.005622 0.033101  
2002-08-13 07:43:11 51°19.939 2°47.718 23.047272 0.005622 0.033101  
2002-08-13 07:43:16 51°19.939 2°47.718 23.048163 0.005622 0.033101  
2002-08-13 07:43:21 51°19.939 2°47.718 23.049792 0.005622 0.033102  
2002-08-13 07:43:26 51°19.939 2°47.718 23.050955 0.005622 0.033102  
2002-08-13 07:43:31 51°19.939 2°47.717 23.053823 0.005622 0.033102  
2002-08-13 07:43:36 51°19.939 2°47.717 23.053823 0.005622 0.033102  
2002-08-13 07:43:40 51°19.94 2°47.717 23.054831 0.005622 0.033102  
2002-08-13 07:43:46 51°19.94 2°47.717 23.057467 0.005622 0.033102  
2002-08-13 07:43:51 51°19.94 2°47.717 23.058708 0.005622 0.033102  
2002-08-13 07:43:56 51°19.94 2°47.717 23.060762 0.005622 0.033103  
2002-08-13 07:44:00 51°19.94 2°47.717 23.062467 0.005622 0.033103  
2002-08-13 07:44:06 51°19.941 2°47.717 23.062467 0.005622 0.033103  
2002-08-13 07:44:11 51°19.941 2°47.716 23.063088 0.005622 0.033103  
2002-08-13 07:44:16 51°19.941 2°47.716 23.064871 0.005622 0.033103  
2002-08-13 07:44:20 51°19.941 2°47.716 23.067661 0.005622 0.033103  
2002-08-13 07:44:26 51°19.941 2°47.716 23.068669 0.005622 0.033103  
2002-08-13 07:44:31 51°19.941 2°47.716 23.069987 0.005622 0.033104  
2002-08-13 07:44:36 51°19.941 2°47.716 23.069987 0.005622 0.033104  
2002-08-13 07:44:41 51°19.941 2°47.716 23.072816 0.005622 0.033104  
2002-08-13 07:44:46 51°19.942 2°47.716 23.074598 0.005622 0.033104  
2002-08-13 07:44:51 51°19.942 2°47.716 23.076691 0.005622 0.033104  
2002-08-13 07:44:56 51°19.942 2°47.716 23.077699 0.005622 0.033104  
2002-08-13 07:45:01 51°19.942 2°47.716 23.081419 0.005622 0.033104  
2002-08-13 07:45:06 51°19.942 2°47.715 23.081419 0.005622 0.033104  
2002-08-13 07:45:11 51°19.942 2°47.715 23.082 0.005622 0.033105  
2002-08-13 07:45:16 51°19.942 2°47.715 23.082853 0.005622 0.033105  
2002-08-13 07:45:21 51°19.942 2°47.715 23.08696 0.005622 0.033105  
2002-08-13 07:45:26 51°19.943 2°47.715 23.087115 0.005622 0.033105  
2002-08-13 07:45:31 51°19.943 2°47.715 23.087115 0.005622 0.033105  
2002-08-13 07:45:35 51°19.943 2°47.715 23.089595 0.005622 0.033105  
2002-08-13 07:45:41 51°19.943 2°47.715 23.091764 0.005622 0.033105  
2002-08-13 07:45:46 51°19.943 2°47.715 23.094438 0.005622 0.033105  
2002-08-13 07:45:51 51°19.943 2°47.715 23.093508 0.005622 0.033106  
2002-08-13 07:45:56 51°19.943 2°47.714 23.097305 0.005622 0.033106  
2002-08-13 07:46:01 51°19.944 2°47.714 23.099087 0.005622 0.033106  
2002-08-13 07:46:06 51°19.944 2°47.714 23.099087 0.005622 0.033106  
2002-08-13 07:46:11 51°19.944 2°47.714 23.102186 0.005622 0.033106  
2002-08-13 07:46:16 51°19.944 2°47.714 23.103193 0.005622 0.033107  
2002-08-13 07:46:21 51°19.944 2°47.714 23.10606 0.005622 0.033106  
2002-08-13 07:46:26 51°19.944 2°47.714 23.104665 0.005622 0.033107  
2002-08-13 07:46:31 51°19.944 2°47.713 23.107881 0.005622 0.033107  
2002-08-13 07:46:36 51°19.945 2°47.713 23.107881 0.005622 0.033107  
2002-08-13 07:46:40 51°19.945 2°47.713 23.110088 0.005622 0.033107  
2002-08-13 07:46:46 51°19.945 2°47.713 23.111909 0.005622 0.033107  
2002-08-13 07:46:51 51°19.945 2°47.713 23.114155 0.005622 0.033107  
2002-08-13 07:46:56 51°19.945 2°47.713 23.115898 0.005622 0.033107  
2002-08-13 07:47:00 51°19.945 2°47.713 23.118842 0.005622 0.033108  
2002-08-13 07:47:06 51°19.946 2°47.712 23.118842 0.005622 0.033108  
2002-08-13 07:47:11 51°19.946 2°47.712 23.120236 0.005622 0.033108  
2002-08-13 07:47:16 51°19.946 2°47.712 23.124225 0.005622 0.033108  
2002-08-13 07:47:21 51°19.946 2°47.712 23.123838 0.005622 0.033108  
2002-08-13 07:47:26 51°19.946 2°47.712 23.128253 0.005622 0.033108  
2002-08-13 07:47:31 51°19.946 2°47.712 23.129105 0.005622 0.033109  
2002-08-13 07:47:36 51°19.947 2°47.712 23.129105 0.005622 0.033109  
2002-08-13 07:47:41 51°19.947 2°47.712 23.129802 0.005622 0.033109  
2002-08-13 07:47:46 51°19.947 2°47.712 23.132667 0.005622 0.033109  
2002-08-13 07:47:51 51°19.947 2°47.712 23.134216 0.005622 0.033109  
2002-08-13 07:47:56 51°19.947 2°47.712 23.137469 0.005622 0.033109  
2002-08-13 07:48:01 51°19.947 2°47.712 23.138166 0.005622 0.033109  
2002-08-13 07:48:06 51°19.947 2°47.711 23.138166 0.005622 0.033109  
2002-08-13 07:48:11 51°19.948 2°47.711 23.140179 0.005622 0.03311  
2002-08-13 07:48:16 51°19.948 2°47.711 23.142347 0.005622 0.03311  
2002-08-13 07:48:20 51°19.948 2°47.711 23.146026 0.005622 0.03311  
2002-08-13 07:48:24 51°19.948 2°47.711 23.14649 0.005518 0.032642  
2002-08-13 07:48:31 51°19.948 2°47.711 23.14649 0.005518 0.032642  
2002-08-13 07:48:36 51°19.948 2°47.711 23.147884 0.005518 0.032642  
2002-08-13 07:48:41 51°19.949 2°47.711 23.150245 0.005518 0.032642  
2002-08-13 07:48:46 51°19.949 2°47.711 23.154426 0.005622 0.033111  
2002-08-13 07:48:51 51°19.949 2°47.711 23.154504 0.005622 0.033111  
2002-08-13 07:48:56 51°19.949 2°47.71 23.157872 0.005622 0.033111  
2002-08-13 07:49:01 51°19.949 2°47.71 23.157872 0.005622 0.033111  
2002-08-13 07:49:06 51°19.95 2°47.71 23.159497 0.005622 0.033111  
2002-08-13 07:49:11 51°19.95 2°47.71 23.162052 0.005622 0.033111  
2002-08-13 07:49:16 51°19.95 2°47.71 23.164374 0.005622 0.033112  
2002-08-13 07:49:20 51°19.95 2°47.71 23.166155 0.005622 0.033112  
2002-08-13 07:49:26 51°19.95 2°47.71 23.168477 0.005622 0.033112  
2002-08-13 07:49:31 51°19.95 2°47.709 23.168864 0.005622 0.033112  
2002-08-13 07:49:36 51°19.951 2°47.709 23.168864 0.005622 0.033112  
2002-08-13 07:49:40 51°19.951 2°47.709 23.173044 0.005518 0.032643  
2002-08-13 07:49:45 51°19.951 2°47.709 23.173431 0.005622 0.033112  
2002-08-13 07:49:51 51°19.951 2°47.709 23.176682 0.005622 0.033113  
2002-08-13 07:49:56 51°19.952 2°47.708 23.178849 0.005622 0.033113  
2002-08-13 07:50:00 51°19.952 2°47.708 23.181403 0.005518 0.032644  
2002-08-13 07:50:05 51°19.952 2°47.708 23.181403 0.005518 0.032644  
2002-08-13 07:50:11 51°19.952 2°47.708 23.184034 0.005622 0.033113  
2002-08-13 07:50:16 51°19.952 2°47.707 23.185118 0.005622 0.033113  
2002-08-13 07:50:21 51°19.953 2°47.707 23.187826 0.005622 0.033114  
2002-08-13 07:50:26 51°19.953 2°47.707 23.18949 0.005622 0.033114  
2002-08-13 07:50:31 51°19.953 2°47.706 23.192895 0.005622 0.033114  
2002-08-13 07:50:36 51°19.953 2°47.706 23.192895 0.005622 0.033114  
2002-08-13 07:50:40 51°19.953 2°47.706 23.194829 0.005622 0.033114  
2002-08-13 07:50:45 51°19.953 2°47.706 23.195526 0.005518 0.032646  
2002-08-13 07:50:51 51°19.954 2°47.706 23.198698 0.005622 0.033115  
2002-08-13 07:50:56 51°19.954 2°47.706 23.200633 0.005518 0.032646  
2002-08-13 07:51:01 51°19.954 2°47.705 23.201484 0.005518 0.032646  
2002-08-13 07:51:06 51°19.954 2°47.705 23.201484 0.005518 0.032646  
2002-08-13 07:51:11 51°19.954 2°47.705 23.205043 0.005518 0.032646  
2002-08-13 07:51:15 51°19.954 2°47.705 23.206899 0.005518 0.032646  
2002-08-13 07:51:20 51°19.955 2°47.704 23.209839 0.005518 0.032647  
2002-08-13 07:51:25 51°19.955 2°47.704 23.212856 0.005518 0.032647  
2002-08-13 07:51:31 51°19.955 2°47.704 23.213088 0.005518 0.032647  
2002-08-13 07:51:36 51°19.955 2°47.703 23.213088 0.005518 0.032647  
2002-08-13 07:51:41 51°19.956 2°47.703 23.216492 0.005622 0.033116  
2002-08-13 07:51:46 51°19.956 2°47.703 23.217575 0.005518 0.032647  
2002-08-13 07:51:51 51°19.956 2°47.702 23.220205 0.005518 0.032647  
2002-08-13 07:51:55 51°19.956 2°47.702 23.223686 0.005518 0.032648  
2002-08-13 07:52:00 51°19.956 2°47.702 23.223686 0.005518 0.032648  
2002-08-13 07:52:05 51°19.957 2°47.702 23.224459 0.005518 0.032648  
2002-08-13 07:52:11 51°19.957 2°47.701 23.22647 0.005518 0.032648  
2002-08-13 07:52:16 51°19.957 2°47.701 23.230647 0.005518 0.032648  
2002-08-13 07:52:21 51°19.957 2°47.7 23.232348 0.005518 0.032648  
2002-08-13 07:52:26 51°19.957 2°47.7 23.234514 0.005622 0.033117  
2002-08-13 07:52:31 51°19.958 2°47.7 23.237452 0.005518 0.032648  
2002-08-13 07:52:36 51°19.958 2°47.7 23.237452 0.005518 0.032648  
2002-08-13 07:52:40 51°19.958 2°47.699 23.238419 0.005518 0.032649  
2002-08-13 07:52:45 51°19.958 2°47.699 23.24128 0.005518 0.032649  
2002-08-13 07:52:51 51°19.959 2°47.699 23.242595 0.005622 0.033118  
2002-08-13 07:52:56 51°19.959 2°47.699 23.244528 0.005518 0.032649  
2002-08-13 07:53:01 51°19.96 2°47.698 23.24793 0.005518 0.032649  
2002-08-13 07:53:06 51°19.96 2°47.698 23.24793 0.005518 0.032649  
2002-08-13 07:53:11 51°19.961 2°47.697 23.250289 0.005518 0.032649  
2002-08-13 07:53:16 51°19.961 2°47.697 23.253111 0.005518 0.032649  
2002-08-13 07:53:21 51°19.962 2°47.697 23.253884 0.005622 0.033119  
2002-08-13 07:53:26 51°19.963 2°47.697 23.25744 0.005518 0.03265  
2002-08-13 07:53:31 51°19.964 2°47.697 23.258948 0.005518 0.03265  
2002-08-13 07:53:36 51°19.966 2°47.696 23.258948 0.005518 0.03265  
2002-08-13 07:53:41 51°19.969 2°47.697 23.263084 0.005518 0.03265  
2002-08-13 07:53:46 51°19.972 2°47.698 23.263161 0.005518 0.03265  
2002-08-13 07:53:51 51°19.975 2°47.7 23.262002 0.005518 0.03265  
2002-08-13 07:53:56 51°19.978 2°47.702 23.258523 0.005518 0.03265  
2002-08-13 07:54:01 51°19.981 2°47.705 23.26177 0.005518 0.03265  
2002-08-13 07:54:06 51°19.985 2°47.709 23.26177 0.005518 0.03265  
2002-08-13 07:54:11 51°19.988 2°47.714 23.263548 0.005518 0.032649  
2002-08-13 07:54:15 51°19.99 2°47.718 23.267413 0.005518 0.03265  
2002-08-13 07:54:21 51°19.993 2°47.724 23.272437 0.005518 0.03265  
2002-08-13 07:54:26 51°19.995 2°47.729 23.276418 0.005518 0.032651  
2002-08-13 07:54:31 51°19.996 2°47.734 23.278891 0.005518 0.032651  
2002-08-13 07:54:36 51°19.997 2°47.739 23.278891 0.005518 0.032651  
2002-08-13 07:54:41 51°19.998 2°47.745 23.28148 0.005518 0.032651  
2002-08-13 07:54:46 51°19.998 2°47.75 23.284069 0.005518 0.032651  
2002-08-13 07:54:51 51°19.999 2°47.754 23.287315 0.005518 0.032651  
2002-08-13 07:54:55 51°19.999 2°47.758 23.290793 0.005518 0.032651  
2002-08-13 07:55:01 51°19.999 2°47.764 23.292802 0.005518 0.032652  
2002-08-13 07:55:06 51°19.999 2°47.769 23.292802 0.005518 0.032652  
2002-08-13 07:55:11 51°19.999 2°47.774 23.295274 0.005518 0.032652  
2002-08-13 07:55:16 51°19.998 2°47.778 23.298906 0.005518 0.032652  
2002-08-13 07:55:21 51°19.998 2°47.783 23.301147 0.005622 0.033121  
2002-08-13 07:55:26 51°19.997 2°47.787 23.30161 0.005518 0.032652  
2002-08-13 07:55:31 51°19.995 2°47.791 23.306632 0.005518 0.032653  
2002-08-13 07:55:35 51°19.995 2°47.795 23.306632 0.005518 0.032653  
2002-08-13 07:55:41 51°19.993 2°47.799 23.309645 0.005518 0.032653  
2002-08-13 07:55:46 51°19.992 2°47.803 23.309954 0.005518 0.032653  
2002-08-13 07:55:51 51°19.99 2°47.807 23.314551 0.005518 0.032653  
2002-08-13 07:55:56 51°19.989 2°47.811 23.316173 0.005518 0.032653  
2002-08-13 07:56:01 51°19.987 2°47.814 23.316173 0.005518 0.032653  
2002-08-13 07:56:06 51°19.985 2°47.817 23.318336 0.005518 0.032653  
2002-08-13 07:56:11 51°19.983 2°47.82 23.320345 0.005518 0.032653  
2002-08-13 07:56:16 51°19.981 2°47.823 23.322276 0.005518 0.032653  
2002-08-13 07:56:20 51°19.98 2°47.826 23.32606 0.005518 0.032653  
2002-08-13 07:56:26 51°19.977 2°47.829 23.328918 0.005518 0.032653  
2002-08-13 07:56:31 51°19.975 2°47.831 23.329999 0.005518 0.032653  
2002-08-13 07:56:36 51°19.972 2°47.833 23.329999 0.005518 0.032653  
2002-08-13 07:56:40 51°19.97 2°47.835 23.333822 0.005518 0.032653  
2002-08-13 07:56:46 51°19.967 2°47.837 23.337529 0.005518 0.032654  
2002-08-13 07:56:51 51°19.965 2°47.838 23.337529 0.005518 0.032654  
2002-08-13 07:56:56 51°19.962 2°47.839 23.34 0.005518 0.032654  
2002-08-13 07:57:01 51°19.959 2°47.84 23.341854 0.005518 0.032654  
2002-08-13 07:57:06 51°19.957 2°47.841 23.341854 0.005518 0.032654  
2002-08-13 07:57:11 51°19.954 2°47.842 23.34502 0.005518 0.032654  
2002-08-13 07:57:15 51°19.951 2°47.842 23.347259 0.005518 0.032654  
2002-08-13 07:57:20 51°19.949 2°47.842 23.350116 0.005518 0.032654  
2002-08-13 07:57:26 51°19.946 2°47.842 23.352355 0.005518 0.032654  
2002-08-13 07:57:31 51°19.943 2°47.842 23.355135 0.005518 0.032654  
2002-08-13 07:57:36 51°19.94 2°47.842 23.355135 0.005518 0.032654  
2002-08-13 07:57:41 51°19.938 2°47.842 23.356679 0.005518 0.032654  
2002-08-13 07:57:46 51°19.935 2°47.842 23.358532 0.005518 0.032654  
2002-08-13 07:57:51 51°19.932 2°47.841 23.361774 0.005518 0.032654  
2002-08-13 07:57:56 51°19.929 2°47.84 23.361967 0.005518 0.032654  
2002-08-13 07:58:01 51°19.927 2°47.84 23.367139 0.005518 0.032654  
2002-08-13 07:58:06 51°19.925 2°47.84 23.367139 0.005518 0.032654  
2002-08-13 07:58:11 51°19.923 2°47.839 23.368799 0.005518 0.032654  
2002-08-13 07:58:16 51°19.92 2°47.839 23.371308 0.005518 0.032654  
2002-08-13 07:58:20 51°19.918 2°47.838 23.373044 0.005518 0.032654  
2002-08-13 07:58:26 51°19.915 2°47.837 23.373893 0.005518 0.032654  
2002-08-13 07:58:31 51°19.912 2°47.835 23.37563 0.005518 0.032654  
2002-08-13 07:58:36 51°19.91 2°47.834 23.37563 0.005518 0.032654  
2002-08-13 07:58:41 51°19.907 2°47.833 23.381264 0.005518 0.032655  
2002-08-13 07:58:46 51°19.904 2°47.831 23.381998 0.005518 0.032655  
2002-08-13 07:58:51 51°19.901 2°47.83 23.385664 0.005518 0.032655  
2002-08-13 07:58:56 51°19.898 2°47.828 23.389098 0.005518 0.032654  
2002-08-13 07:59:01 51°19.895 2°47.826 23.390718 0.005518 0.032655  
2002-08-13 07:59:06 51°19.892 2°47.825 23.390718 0.005518 0.032655  
2002-08-13 07:59:11 51°19.889 2°47.824 23.393573 0.005518 0.032655  
2002-08-13 07:59:16 51°19.887 2°47.823 23.392802 0.005518 0.032655  
2002-08-13 07:59:20 51°19.885 2°47.822 23.395464 0.005518 0.032655  
2002-08-13 07:59:24 51°19.882 2°47.82 23.399476 0.005518 0.032655  
2002-08-13 07:59:31 51°19.878 2°47.818 23.402254 0.005518 0.032655  
2002-08-13 07:59:36 51°19.875 2°47.817 23.402254 0.005518 0.032655  
2002-08-13 07:59:41 51°19.872 2°47.815 23.404414 0.005518 0.032655  
2002-08-13 07:59:46 51°19.868 2°47.813 23.407231 0.005518 0.032655  
2002-08-13 07:59:51 51°19.864 2°47.811 23.410394 0.005518 0.032655  
2002-08-13 07:59:56 51°19.861 2°47.809 23.413479 0.005518 0.032655  
2002-08-13 08:00:00 51°19.859 2°47.808 23.413479 0.005518 0.032655  
2002-08-13 08:00:06 51°19.856 2°47.806 23.414559 0.005518 0.032655  
2002-08-13 08:00:11 51°19.853 2°47.805 23.416797 0.005518 0.032655  
2002-08-13 08:00:16 51°19.851 2°47.804 23.419458 0.005518 0.032655  
2002-08-13 08:00:21 51°19.848 2°47.802 23.422698 0.005518 0.032655  
2002-08-13 08:00:26 51°19.845 2°47.801 23.423238 0.005518 0.032655  
2002-08-13 08:00:31 51°19.842 2°47.799 23.426477 0.005518 0.032655  
2002-08-13 08:00:36 51°19.839 2°47.797 23.426477 0.005518 0.032655  
2002-08-13 08:00:40 51°19.837 2°47.796 23.429215 0.005518 0.032655  
2002-08-13 08:00:46 51°19.834 2°47.793 23.433689 0.005518 0.032655  
2002-08-13 08:00:51 51°19.831 2°47.792 23.43392 0.005518 0.032655  
2002-08-13 08:00:56 51°19.828 2°47.789 23.435308 0.005518 0.032655  
2002-08-13 08:01:01 51°19.825 2°47.787 23.437545 0.005518 0.032655  
2002-08-13 08:01:06 51°19.822 2°47.786 23.437545 0.005518 0.032655  
2002-08-13 08:01:11 51°19.82 2°47.783 23.440205 0.005518 0.032655  
2002-08-13 08:01:15 51°19.817 2°47.781 23.443984 0.005518 0.032655  
2002-08-13 08:01:21 51°19.814 2°47.779 23.447068 0.005518 0.032655  
2002-08-13 08:01:26 51°19.812 2°47.777 23.447377 0.005518 0.032655  
2002-08-13 08:01:31 51°19.809 2°47.775 23.451348 0.005518 0.032655  
2002-08-13 08:01:36 51°19.807 2°47.772 23.451348 0.005518 0.032655  
2002-08-13 08:01:40 51°19.805 2°47.771 23.453275 0.005518 0.032655  
2002-08-13 08:01:46 51°19.802 2°47.768 23.456359 0.005518 0.032655  
2002-08-13 08:01:51 51°19.799 2°47.765 23.458248 0.005518 0.032655  
2002-08-13 08:01:56 51°19.797 2°47.763 23.460407 0.005518 0.032655  
2002-08-13 08:02:00 51°19.795 2°47.761 23.46349 0.005518 0.032655  
2002-08-13 08:02:06 51°19.792 2°47.758 23.46349 0.005518 0.032655  
2002-08-13 08:02:11 51°19.79 2°47.755 23.465263 0.005518 0.032655  
2002-08-13 08:02:16 51°19.788 2°47.753 23.467191 0.005518 0.032655  
2002-08-13 08:02:21 51°19.785 2°47.75 23.469426 0.005518 0.032655  
2002-08-13 08:02:26 51°19.783 2°47.748 23.473088 0.005518 0.032655  
2002-08-13 08:02:31 51°19.781 2°47.745 23.474822 0.005518 0.032655  
2002-08-13 08:02:36 51°19.779 2°47.742 23.474822 0.005518 0.032655  
2002-08-13 08:02:40 51°19.777 2°47.74 23.478676 0.005518 0.032655  
2002-08-13 08:02:46 51°19.775 2°47.737 23.481373 0.005518 0.032655  
2002-08-13 08:02:51 51°19.773 2°47.735 23.482915 0.005518 0.032655  
2002-08-13 08:02:56 51°19.771 2°47.732 23.487423 0.005518 0.032655  
2002-08-13 08:03:00 51°19.77 2°47.73 23.488425 0.005518 0.032655  
2002-08-13 08:03:06 51°19.767 2°47.727 23.488425 0.005518 0.032655  
2002-08-13 08:03:11 51°19.765 2°47.725 23.490583 0.005518 0.032655  
2002-08-13 08:03:16 51°19.763 2°47.722 23.492432 0.005518 0.032655  
2002-08-13 08:03:21 51°19.761 2°47.719 23.495322 0.005518 0.032654  
2002-08-13 08:03:26 51°19.76 2°47.717 23.498674 0.005518 0.032655  
2002-08-13 08:03:31 51°19.758 2°47.714 23.499213 0.005518 0.032655  
2002-08-13 08:03:36 51°19.756 2°47.711 23.499213 0.005518 0.032655  
2002-08-13 08:03:41 51°19.754 2°47.709 23.503027 0.005518 0.032655  
2002-08-13 08:03:46 51°19.752 2°47.706 23.506494 0.005518 0.032655  
2002-08-13 08:03:51 51°19.751 2°47.703 23.507419 0.005518 0.032655  
2002-08-13 08:03:56 51°19.749 2°47.7 23.512927 0.005518 0.032655  
2002-08-13 08:04:01 51°19.747 2°47.697 23.511078 0.005518 0.032655  
2002-08-13 08:04:06 51°19.745 2°47.692 23.511078 0.005518 0.032655  
2002-08-13 08:04:11 51°19.742 2°47.687 23.51493 0.005518 0.032655  
2002-08-13 08:04:16 51°19.74 2°47.679 23.495553 0.005518 0.032654  
2002-08-13 08:04:21 51°19.737 2°47.671 23.505685 0.005518 0.032654  
2002-08-13 08:04:26 51°19.736 2°47.66 23.521209 0.005518 0.032653  
2002-08-13 08:04:31 51°19.735 2°47.648 23.527294 0.005518 0.032652  
2002-08-13 08:04:36 51°19.736 2°47.634 23.527294 0.005518 0.032652  
2002-08-13 08:04:41 51°19.737 2°47.617 23.523866 0.005518 0.032653  
2002-08-13 08:04:46 51°19.74 2°47.598 23.525946 0.005518 0.032653  
2002-08-13 08:04:51 51°19.743 2°47.577 23.532069 0.005518 0.032654  
2002-08-13 08:04:56 51°19.748 2°47.555 23.532223 0.005518 0.032654  
2002-08-13 08:05:00 51°19.753 2°47.538 23.537729 0.005518 0.032654  
2002-08-13 08:05:06 51°19.762 2°47.51 23.537729 0.005518 0.032654  
2002-08-13 08:05:11 51°19.77 2°47.486 23.539924 0.005518 0.032654  
2002-08-13 08:05:16 51°19.779 2°47.461 23.541233 0.005518 0.032654  
2002-08-13 08:05:20 51°19.785 2°47.439 23.545007 0.005518 0.032655  
2002-08-13 08:05:26 51°19.793 2°47.406 23.546508 0.005518 0.032655  
2002-08-13 08:05:31 51°19.8 2°47.378 23.548433 0.005518 0.032656  
2002-08-13 08:05:36 51°19.805 2°47.349 23.548433 0.005518 0.032656  
2002-08-13 08:05:41 51°19.81 2°47.319 23.551051 0.005518 0.032656  
2002-08-13 08:05:46 51°19.814 2°47.288 23.551128 0.005518 0.032656  
2002-08-13 08:05:51 51°19.818 2°47.257 23.557249 0.005518 0.032656  
2002-08-13 08:05:56 51°19.822 2°47.226 23.558982 0.005518 0.032657  
2002-08-13 08:06:00 51°19.824 2°47.201 23.561676 0.005518 0.032657  
2002-08-13 08:06:06 51°19.826 2°47.163 23.561676 0.005518 0.032657  
2002-08-13 08:06:11 51°19.829 2°47.131 23.559675 0.005518 0.032657  
2002-08-13 08:06:16 51°19.83 2°47.099 23.565872 0.005518 0.032657  
2002-08-13 08:06:21 51°19.831 2°47.067 23.566719 0.005518 0.032658  
2002-08-13 08:06:26 51°19.832 2°47.035 23.569644 0.005518 0.032658  
2002-08-13 08:06:31 51°19.831 2°47.003 23.571453 0.005518 0.032658  
2002-08-13 08:06:36 51°19.83 2°46.97 23.571453 0.005518 0.032658  
2002-08-13 08:06:40 51°19.828 2°46.945 23.574686 0.005518 0.032658  
2002-08-13 08:06:46 51°19.824 2°46.907 23.57788 0.005518 0.032658  
2002-08-13 08:06:51 51°19.82 2°46.875 23.58042 0.005518 0.032658  
2002-08-13 08:06:56 51°19.815 2°46.845 23.579342 0.005518 0.032659  
2002-08-13 08:07:00 51°19.81 2°46.82 23.584037 0.005518 0.032659  
2002-08-13 08:07:06 51°19.802 2°46.784 23.584037 0.005518 0.032659  
2002-08-13 08:07:11 51°19.795 2°46.753 23.587154 0.005518 0.032659  
2002-08-13 08:07:16 51°19.787 2°46.723 23.586923 0.005518 0.032659  
2002-08-13 08:07:21 51°19.779 2°46.694 23.588039 0.005518 0.032659  
2002-08-13 08:07:26 51°19.77 2°46.665 23.589001 0.005518 0.032658  
2002-08-13 08:07:31 51°19.761 2°46.636 23.57965 0.005518 0.032658  
2002-08-13 08:07:36 51°19.752 2°46.607 23.57965 0.005518 0.032658  
2002-08-13 08:07:40 51°19.744 2°46.584 23.593695 0.005518 0.032658  
2002-08-13 08:07:46 51°19.733 2°46.55 23.595465 0.005518 0.032658  
2002-08-13 08:07:51 51°19.723 2°46.521 23.584691 0.005518 0.032659  
2002-08-13 08:07:56 51°19.713 2°46.493 23.601006 0.005518 0.032659  
2002-08-13 08:08:00 51°19.706 2°46.47 23.599582 0.005518 0.032659  
2002-08-13 08:08:06 51°19.694 2°46.435 23.599582 0.005518 0.032659  
2002-08-13 08:08:11 51°19.685 2°46.406 23.603737 0.005518 0.03266  
2002-08-13 08:08:16 51°19.675 2°46.378 23.606584 0.005518 0.03266  
2002-08-13 08:08:20 51°19.668 2°46.355 23.607007 0.005518 0.03266  
2002-08-13 08:08:26 51°19.656 2°46.32 23.610854 0.005518 0.03266  
2002-08-13 08:08:31 51°19.647 2°46.291 23.612585 0.005518 0.03266  
2002-08-13 08:08:36 51°19.637 2°46.262 23.612585 0.005518 0.03266  
2002-08-13 08:08:41 51°19.628 2°46.233 23.616124 0.005518 0.032661  
2002-08-13 08:08:46 51°19.619 2°46.204 23.61747 0.005518 0.032661  
2002-08-13 08:08:51 51°19.61 2°46.174 23.620431 0.005518 0.032661  
2002-08-13 08:08:56 51°19.602 2°46.145 23.622354 0.005518 0.032662  
2002-08-13 08:09:00 51°19.594 2°46.121 23.622354 0.005518 0.032662  
2002-08-13 08:09:06 51°19.584 2°46.085 23.622354 0.005518 0.032662  
2002-08-13 08:09:11 51°19.576 2°46.056 23.627008 0.005518 0.032662  
2002-08-13 08:09:16 51°19.568 2°46.026 23.624201 0.005518 0.032662  
2002-08-13 08:09:21 51°19.559 2°45.996 23.632584 0.005518 0.032663  
2002-08-13 08:09:26 51°19.551 2°45.966 23.634353 0.005518 0.032663  
2002-08-13 08:09:31 51°19.542 2°45.936 23.637314 0.005518 0.032663  
2002-08-13 08:09:36 51°19.534 2°45.906 23.637314 0.005518 0.032663  
2002-08-13 08:09:40 51°19.528 2°45.882 23.638737 0.005518 0.032664  
2002-08-13 08:09:46 51°19.518 2°45.846 23.642121 0.005518 0.032664  
2002-08-13 08:09:51 51°19.51 2°45.816 23.643313 0.005518 0.032664  
2002-08-13 08:09:56 51°19.501 2°45.786 23.646235 0.005518 0.032665  
2002-08-13 08:10:00 51°19.495 2°45.762 23.649426 0.005518 0.032665  
2002-08-13 08:10:06 51°19.485 2°45.726 23.649426 0.005518 0.032665  
2002-08-13 08:10:11 51°19.476 2°45.696 23.650425 0.005518 0.032665  
2002-08-13 08:10:16 51°19.468 2°45.666 23.652848 0.005518 0.032666  
2002-08-13 08:10:21 51°19.459 2°45.636 23.654001 0.005518 0.032666  
2002-08-13 08:10:26 51°19.45 2°45.606 23.657884 0.005518 0.032667  
2002-08-13 08:10:31 51°19.442 2°45.577 23.655462 0.005518 0.032667  
2002-08-13 08:10:36 51°19.433 2°45.548 23.655462 0.005518 0.032667  
2002-08-13 08:10:41 51°19.425 2°45.517 23.658114 0.005518 0.032667  
2002-08-13 08:10:46 51°19.416 2°45.488 23.662842 0.005518 0.032667  
2002-08-13 08:10:51 51°19.408 2°45.457 23.665572 0.005518 0.032668  
2002-08-13 08:10:56 51°19.399 2°45.427 23.668108 0.005518 0.032668  
2002-08-13 08:11:01 51°19.391 2°45.397 23.669915 0.005518 0.032669  
2002-08-13 08:11:06 51°19.383 2°45.367 23.669915 0.005518 0.032669  
2002-08-13 08:11:11 51°19.375 2°45.338 23.672951 0.005518 0.032669  
2002-08-13 08:11:16 51°19.366 2°45.308 23.676026 0.005518 0.032669  
2002-08-13 08:11:21 51°19.358 2°45.278 23.679754 0.005518 0.03267